DLH7VX LKPR-EDDM

Flight info

Callsign DLH7VX
Flight time 0h 29m
Altitude 30000
Route DOBEN DCT NIRGO T108 LANDU LANDU2B
Aircraft A319/M-SDE2E3FGIJ1LORWXYZ/HB1

Departure

Time 2026-05-07 20:41
Airport Václav Havel Airport Prague (LKPR)

Arrival

Time 2026-05-07 21:10
Airport Munich Airport (EDDM)
Time Latitude Longitude Altitude Speed Heading
2026-05-07 20:19 50.10797 14.26592 1173 ft 0 kts 32°
2026-05-07 20:31 50.10796 14.26591 1178 ft 1 kts 32°
2026-05-07 20:32 50.10777 14.26572 1179 ft 4 kts 32°
2026-05-07 20:32 50.10757 14.26552 1176 ft 4 kts 39°
2026-05-07 20:32 50.10742 14.26524 1175 ft 4 kts 79°
2026-05-07 20:32 50.10744 14.26487 1173 ft 4 kts 112°
2026-05-07 20:33 50.10751 14.26454 1177 ft 4 kts 67°
2026-05-07 20:33 50.10750 14.26447 1175 ft 0 kts 33°
2026-05-07 20:35 50.10771 14.26449 1175 ft 6 kts 336°
2026-05-07 20:35 50.10798 14.26379 1174 ft 8 kts 294°
2026-05-07 20:35 50.10823 14.26294 1174 ft 9 kts 306°
2026-05-07 20:36 50.10867 14.26227 1172 ft 9 kts 309°
2026-05-07 20:36 50.10904 14.26151 1168 ft 9 kts 316°
2026-05-07 20:36 50.10961 14.26167 1168 ft 9 kts 36°
2026-05-07 20:36 50.11013 14.26225 1166 ft 9 kts 34°
2026-05-07 20:37 50.11071 14.26285 1166 ft 11 kts 35°
2026-05-07 20:37 50.11118 14.26379 1168 ft 11 kts 64°
2026-05-07 20:37 50.11150 14.26485 1171 ft 11 kts 65°
2026-05-07 20:37 50.11191 14.26621 1172 ft 17 kts 65°
2026-05-07 20:38 50.11239 14.26784 1174 ft 15 kts 65°
2026-05-07 20:38 50.11282 14.26928 1174 ft 15 kts 65°
2026-05-07 20:38 50.11328 14.27085 1170 ft 16 kts 65°
2026-05-07 20:38 50.11375 14.27241 1168 ft 16 kts 65°
2026-05-07 20:39 50.11417 14.27376 1166 ft 13 kts 60°
2026-05-07 20:39 50.11490 14.27400 1166 ft 12 kts 335°
2026-05-07 20:39 50.11545 14.27307 1166 ft 12 kts 295°
2026-05-07 20:39 50.11548 14.27182 1166 ft 12 kts 255°
2026-05-07 20:40 50.11539 14.27145 1164 ft 0 kts 245°
2026-05-07 20:40 50.11533 14.27127 1163 ft 8 kts 245°
2026-05-07 20:40 50.11405 14.26697 1169 ft 83 kts 245°
2026-05-07 20:41 50.11061 14.25551 1173 ft 146 kts 245°
2026-05-07 20:41 50.10561 14.23919 1414 ft 174 kts 246°
2026-05-07 20:41 50.10051 14.22223 2170 ft 173 kts 248°
2026-05-07 20:41 50.09527 14.20481 2786 ft 186 kts 246°
2026-05-07 20:42 50.08709 14.18750 3179 ft 212 kts 228°
2026-05-07 20:42 50.07579 14.17096 3618 ft 235 kts 223°
2026-05-07 20:42 50.06283 14.15345 4194 ft 257 kts 222°
2026-05-07 20:42 50.04910 14.13507 5171 ft 262 kts 222°
2026-05-07 20:43 50.03545 14.11656 6251 ft 265 kts 222°
2026-05-07 20:43 50.02156 14.09740 7257 ft 269 kts 223°
2026-05-07 20:43 50.00755 14.07779 8229 ft 273 kts 224°
2026-05-07 20:43 49.99342 14.05779 9197 ft 277 kts 224°
2026-05-07 20:44 49.97904 14.03737 10136 ft 282 kts 224°
2026-05-07 20:44 49.96406 14.01608 10618 ft 304 kts 224°
2026-05-07 20:44 49.94785 13.99299 10968 ft 327 kts 224°
2026-05-07 20:44 49.93077 13.96871 11606 ft 337 kts 224°
2026-05-07 20:45 49.91329 13.94392 12430 ft 341 kts 224°
2026-05-07 20:45 49.89564 13.91895 13274 ft 345 kts 224°
2026-05-07 20:45 49.87782 13.89375 14076 ft 349 kts 224°
2026-05-07 20:45 49.85972 13.86823 14801 ft 353 kts 224°
2026-05-07 20:46 49.84145 13.84249 15519 ft 356 kts 224°
2026-05-07 20:46 49.82299 13.81649 16239 ft 360 kts 224°
2026-05-07 20:46 49.80461 13.79058 16965 ft 363 kts 224°
2026-05-07 20:46 49.78580 13.76404 17698 ft 367 kts 224°
2026-05-07 20:47 49.76689 13.73732 18401 ft 371 kts 224°
2026-05-07 20:47 49.74771 13.71030 19017 ft 374 kts 224°
2026-05-07 20:47 49.72829 13.68304 19638 ft 378 kts 224°
2026-05-07 20:47 49.70872 13.65561 20260 ft 382 kts 225°
2026-05-07 20:48 49.68892 13.62789 20877 ft 386 kts 225°
2026-05-07 20:48 49.66890 13.59987 21394 ft 392 kts 225°
2026-05-07 20:48 49.64858 13.57148 21962 ft 396 kts 225°
2026-05-07 20:48 49.62803 13.54279 22544 ft 400 kts 225°
2026-05-07 20:49 49.60733 13.51398 23120 ft 403 kts 225°
2026-05-07 20:49 49.58644 13.48494 23675 ft 406 kts 225°
2026-05-07 20:49 49.56531 13.45563 24139 ft 409 kts 225°
2026-05-07 20:49 49.54436 13.42658 24607 ft 411 kts 225°
2026-05-07 20:50 49.52301 13.39698 24969 ft 413 kts 225°
2026-05-07 20:50 49.50162 13.36735 25056 ft 413 kts 225°
2026-05-07 20:50 49.48026 13.33780 25077 ft 413 kts 225°
2026-05-07 20:50 49.45891 13.30828 25076 ft 412 kts 225°
2026-05-07 20:51 49.43756 13.27878 25060 ft 412 kts 225°
2026-05-07 20:51 49.41619 13.24935 25065 ft 411 kts 224°
2026-05-07 20:51 49.39491 13.22012 25067 ft 410 kts 224°
2026-05-07 20:51 49.37359 13.19086 25067 ft 410 kts 224°
2026-05-07 20:52 49.35236 13.16165 25064 ft 410 kts 225°
2026-05-07 20:52 49.33035 13.13465 25053 ft 412 kts 217°
2026-05-07 20:52 49.30526 13.11270 24778 ft 418 kts 208°
2026-05-07 20:52 49.27894 13.09320 24537 ft 418 kts 208°
2026-05-07 20:53 49.25269 13.07381 24299 ft 418 kts 208°
2026-05-07 20:53 49.22678 13.05469 24050 ft 417 kts 208°
2026-05-07 20:53 49.20079 13.03549 23819 ft 413 kts 208°
2026-05-07 20:53 49.17489 13.01651 23570 ft 411 kts 208°
2026-05-07 20:54 49.14910 12.99780 23285 ft 409 kts 208°
2026-05-07 20:54 49.12335 12.97922 23012 ft 407 kts 208°
2026-05-07 20:54 49.09805 12.96097 22736 ft 405 kts 208°
2026-05-07 20:54 49.07254 12.94252 22448 ft 402 kts 208°
2026-05-07 20:55 49.04742 12.92427 21919 ft 397 kts 208°
2026-05-07 20:55 49.02262 12.90621 21387 ft 393 kts 208°
2026-05-07 20:55 48.99800 12.88833 20884 ft 389 kts 208°
2026-05-07 20:55 48.97362 12.87065 20377 ft 386 kts 208°
2026-05-07 20:56 48.94942 12.85311 19883 ft 383 kts 208°
2026-05-07 20:56 48.92568 12.83598 19403 ft 380 kts 208°
2026-05-07 20:56 48.90181 12.81882 18919 ft 377 kts 208°
2026-05-07 20:56 48.87816 12.80187 18423 ft 375 kts 208°
2026-05-07 20:57 48.85456 12.78500 17873 ft 372 kts 208°
2026-05-07 20:57 48.83911 12.77393 17533 ft 369 kts 208°
2026-05-07 20:57 48.81595 12.75734 17019 ft 365 kts 208°
2026-05-07 20:57 48.78566 12.73570 16349 ft 360 kts 208°
2026-05-07 20:58 48.77035 12.72478 15996 ft 358 kts 208°
2026-05-07 20:58 48.74810 12.70894 15480 ft 355 kts 208°
2026-05-07 20:58 48.72581 12.69308 14962 ft 353 kts 208°
2026-05-07 20:58 48.70363 12.67731 14437 ft 351 kts 208°
2026-05-07 20:59 48.68163 12.66161 13911 ft 349 kts 208°
2026-05-07 20:59 48.65978 12.64595 13333 ft 346 kts 208°
2026-05-07 20:59 48.63835 12.62980 12802 ft 341 kts 213°
2026-05-07 20:59 48.61951 12.60868 12268 ft 334 kts 225°
2026-05-07 21:00 48.60420 12.58272 11748 ft 327 kts 236°
2026-05-07 21:00 48.59120 12.55477 11231 ft 323 kts 236°
2026-05-07 21:00 48.57825 12.52711 10757 ft 319 kts 236°
2026-05-07 21:00 48.56569 12.50046 10627 ft 304 kts 236°
2026-05-07 21:01 48.55369 12.47497 10502 ft 291 kts 236°
2026-05-07 21:01 48.54232 12.45087 10368 ft 278 kts 236°
2026-05-07 21:01 48.53127 12.42741 10033 ft 270 kts 237°
2026-05-07 21:01 48.52039 12.40425 9906 ft 269 kts 236°
2026-05-07 21:02 48.50955 12.38115 9768 ft 269 kts 237°
2026-05-07 21:02 48.49873 12.35810 9549 ft 270 kts 237°
2026-05-07 21:02 48.48787 12.33500 8999 ft 273 kts 236°
2026-05-07 21:02 48.47695 12.31182 8620 ft 270 kts 236°
2026-05-07 21:03 48.46610 12.28878 8178 ft 269 kts 236°
2026-05-07 21:03 48.45526 12.26577 7740 ft 268 kts 236°
2026-05-07 21:03 48.44442 12.24281 7304 ft 267 kts 236°
2026-05-07 21:03 48.43353 12.21976 6665 ft 274 kts 236°
2026-05-07 21:04 48.42242 12.19619 5942 ft 283 kts 235°
2026-05-07 21:04 48.41111 12.17228 5647 ft 272 kts 235°
2026-05-07 21:04 48.40053 12.15003 5503 ft 249 kts 235°
2026-05-07 21:04 48.39081 12.12956 5365 ft 230 kts 235°
2026-05-07 21:05 48.38174 12.11044 5254 ft 220 kts 235°
2026-05-07 21:05 48.37313 12.09231 5147 ft 210 kts 235°
2026-05-07 21:05 48.36639 12.07332 5026 ft 202 kts 253°
2026-05-07 21:05 48.36366 12.05295 4826 ft 196 kts 261°
2026-05-07 21:06 48.36199 12.03285 4538 ft 192 kts 263°
2026-05-07 21:06 48.36051 12.01331 4279 ft 183 kts 263°
2026-05-07 21:06 48.35915 11.99506 4047 ft 167 kts 263°
2026-05-07 21:06 48.35792 11.97855 3827 ft 151 kts 263°
2026-05-07 21:07 48.35680 11.96360 3635 ft 139 kts 263°
2026-05-07 21:07 48.35574 11.94952 3460 ft 136 kts 263°
2026-05-07 21:07 48.35468 11.93547 3281 ft 135 kts 264°
2026-05-07 21:07 48.35363 11.92149 3101 ft 134 kts 264°
2026-05-07 21:08 48.35258 11.90753 2918 ft 134 kts 264°
2026-05-07 21:08 48.35153 11.89359 2739 ft 134 kts 264°
2026-05-07 21:08 48.35047 11.87963 2548 ft 134 kts 264°
2026-05-07 21:08 48.34943 11.86573 2345 ft 133 kts 264°
2026-05-07 21:09 48.34840 11.85194 2162 ft 132 kts 264°
2026-05-07 21:09 48.34735 11.83823 1963 ft 131 kts 264°
2026-05-07 21:09 48.34635 11.82467 1797 ft 130 kts 264°
2026-05-07 21:09 48.34532 11.81115 1614 ft 130 kts 264°
2026-05-07 21:10 48.34437 11.79777 1492 ft 128 kts 265°
2026-05-07 21:10 48.34334 11.78612 1461 ft 79 kts 263°
2026-05-07 21:10 48.34305 11.78133 1472 ft 26 kts 270°
2026-05-07 21:10 48.34352 11.77872 1462 ft 27 kts 294°
2026-05-07 21:11 48.34396 11.77735 1460 ft 14 kts 295°
2026-05-07 21:11 48.34435 11.77596 1466 ft 15 kts 293°
2026-05-07 21:11 48.34581 11.77428 1462 ft 12 kts 355°
2026-05-07 21:12 48.34632 11.77501 1466 ft 12 kts 82°
2026-05-07 21:12 48.34642 11.77627 1466 ft 13 kts 84°
2026-05-07 21:12 48.34652 11.77759 1459 ft 13 kts 84°
2026-05-07 21:12 48.34659 11.77864 1466 ft 11 kts 84°
2026-05-07 21:13 48.34668 11.77982 1462 ft 12 kts 84°
2026-05-07 21:13 48.34677 11.78111 1466 ft 13 kts 84°
2026-05-07 21:13 48.34687 11.78245 1467 ft 13 kts 84°
2026-05-07 21:13 48.34697 11.78387 1463 ft 14 kts 83°
2026-05-07 21:14 48.34710 11.78534 1458 ft 15 kts 81°
2026-05-07 21:14 48.34724 11.78690 1463 ft 15 kts 83°
2026-05-07 21:14 48.34735 11.78853 1467 ft 16 kts 84°
2026-05-07 21:14 48.34748 11.79025 1467 ft 17 kts 83°
2026-05-07 21:15 48.34762 11.79202 1467 ft 17 kts 84°
2026-05-07 21:15 48.34775 11.79379 1463 ft 16 kts 83°
2026-05-07 21:15 48.34800 11.79541 1462 ft 16 kts 50°
2026-05-07 21:15 48.34907 11.79549 1467 ft 16 kts 352°
2026-05-07 21:16 48.35021 11.79529 1467 ft 17 kts 354°
2026-05-07 21:16 48.35142 11.79509 1460 ft 18 kts 354°
2026-05-07 21:16 48.35255 11.79489 1464 ft 15 kts 353°
2026-05-07 21:16 48.35318 11.79450 1460 ft 8 kts 275°
2026-05-07 21:17 48.35308 11.79366 1467 ft 9 kts 264°
2026-05-07 21:17 48.35305 11.79323 1467 ft 0 kts 264°